Notices

What's New in latest Release from April 7th, 2021:

- Updated Glossary, including Speed of Maximum Gust, and Total Hourly Precipitation

- Updated national and regional climate services offices contacts and prices information

- Addition of station inventory lists for 1981-2010, 1971-2000, and 1961-1990 Normals.

If you haven't already, please take our survey and provide feedback about our website: https://eccc.sondage-survey.ca/f/LanguageSelection.aspx?s=442ca660-fcf1-47c0-95a9-59707d6fd709

Hourly Data Report for February 05, 2017

TORONTO INTL A
ONTARIO

43°40'36.000" N
79°37'50.000" W
173.40 m
6158731
71624
YYZ

Download Data

Hourly Data (February 2017)
Hourly Data Report for February 5, 2017
TIME
LST
Temp Definition
°C
Dew Point Definition
°C
Rel Hum Definition
%
Precip. Amount Definition
mm

Wind Dir Definition
10's deg

Wind Spd Definition
km/h
Visibility Definition
km
Stn Press Definition
kPa
Hmdx Definition


Wind Chill Definition


Weather Definition


00:00 -3.0 -10.2 58   21 14 24.1 99.57   -8 LegendNANA
01:00 -2.5 -10.8 53   21 16 24.1 99.40   -8 Mostly Cloudy
02:00 -2.5 -10.8 53   22 18 24.1 99.31   -8 LegendNANA
03:00 -2.7 -10.8 54   21 18 24.1 99.21   -8 LegendNANA
04:00 -2.5 -10.8 53   22 21 24.1 99.08   -9 Mostly Cloudy
05:00 -2.8 -10.6 55   23 23 24.1 99.02   -9 LegendNANA
06:00 -2.7 -10.3 56   23 22 24.1 98.92   -9 LegendNANA
07:00 -2.3 -9.5 58   23 19 24.1 98.87   -8 Cloudy
08:00 -3.0 -6.1 79   23 19 9.7 98.86   -9 Snow
09:00 -2.8 -5.1 84   22 18 11.3 98.81   -8 Snow
10:00 -2.6 -4.0 90   23 20 1.6 98.82   -9 Snow
11:00 -1.5 -4.9 78   24 23 24.1 98.80   -8 LegendNANA
12:00 -1.1 -4.6 77   24 22 24.1 98.75   -7 LegendNANA
13:00 -0.9 -4.3 78   24 20 19.3 98.71   -6 Snow
14:00 -0.6 -4.3 76   26 27 19.3 98.68   -7 Snow
15:00 -0.1 -4.2 74   27 24 24.1 98.73   -6 LegendNANA
16:00 0.1 -3.8 75   28 25 24.1 98.82     Cloudy
17:00 0.4 -5.0 67   29 42 24.1 98.90     LegendNANA
18:00 -0.2 -5.4 68   30 27 24.1 99.10   -6 LegendNANA
19:00 -0.8 -7.8 59   28 28 24.1 99.24   -7 Mostly Cloudy
20:00 -1.4 -7.6 63   30 29 24.1 99.36   -8 LegendNANA
21:00 -1.9 -6.1 73   30 22 24.1 99.45   -8 LegendNANA
22:00 -2.6 -8.5 64   30 24 24.1 99.53   -9 Mostly Cloudy
23:00 -2.8 -9.5 60   31 23 24.1 99.60   -9 LegendNANA

Notes on Data Quality.

Legend

  • E = Estimated
  • M = Missing
  • NA = Not Available*
  • [empty] = Indicates an unobserved value
Date modified: